If you wish to contribute or participate in the discussions about articles you are invited to join SKYbrary as a registered user

 Actions

Mandalay International Airport

From SKYbrary Wiki

VYMD
Airport
ICAO: VYMD – IATA: MDL
Summary
Name Mandalay International Airport
Region Asia and Pacific
Territory Myanmar MM.gif
Location Tada-U, Mandalay Region
Serving Mandalay
Elevation 91.135 m
299 ft91.135 m
Coordinates 21° 56' 27.03" N, 96° 5' 23.54" E
Runways
Designator Length Width Surface ROPS
17/35 4268 m14,002.625 ft
61 m200.131 ft
CON yes/yes


METAR
Observation VYMD 220330Z 14005KT 6000 BKN015 FEW018CB OVC100 28/26 Q1006
Station MANDALAY
Date/Time 22 August 2019 03:30:00
Wind direction 140°
Wind speed 05 kts
Lowest cloud amount broken clouds
Temperature 28°C
Dew point 26°C
Humidity 88%
QNH 1006 hPa
Weather condition n/a

Mandalay International Airport, located 35 km18.898 nm
35,000 m
114,829.396 ft
south of Mandalay in Tada-U, Myanmar.

Climatology

Tropical Savanna climate (Köppen climate classification Aw)

Maps

Terrain

Loading map...

Airport Layout

Loading map...


Accidents & Serious Incidents at or in vicinity of VYMD

None on SKYbrary